Regional Weather Roundup
Issued by NWS

Home | Current Version | Previous Version | Graphics & Text | Print | Product List | Glossary Off
Versions: 1 2 3 4 5 6 7 8 9 10 11 12 13 14 15 16 17 18 19 20 21 22 23 24 25 26 27 28 29 30 31 32 33 34 35 36 37 38 39 40 41 42 43 44 45 46 47 48 49 50

069
ASUS43 KLSX 211007
RWRMO

WEATHER SUMMARY FOR MISSOURI
NATIONAL WEATHER SERVICE SPRINGFIELD MO
400 AM CST SAT JAN 21 2017

NOTE: "FAIR" INDICATES FEW OR NO CLOUDS BELOW 12,000 FEET WITH NO
       SIGNIFICANT WEATHER AND/OR OBSTRUCTIONS TO VISIBILITY.
       CURRENT SKY AND/OR WEATHER CONDITIONS ARE NOT AVAILABLE FOR
       CHILLICOTHE AND FARMINGTON.

MOZ001>031-035>038-043-044-053-054-211100-
...NORTHERN AND WESTERN MISSOURI...

CITY           SKY/WX    TMP DP  RH WIND       PRES   REMARKS
KANSAS CTY INT FOG       41  39  93 W7        29.42S VSB 1/4
KANSAS C DTWN  CLEAR     41  39  93 SW7       29.43S
LEE`S SUMMIT   CLEAR     42  38  85 SW13      29.43S
ST JOSEPH      FOG       37  37 100 CALM      29.42F VSB 1/4
CHILLICOTHE      N/A     36  35  96 NW3       29.42F
KIRKSVILLE     CLEAR     37  37 100 S8        29.42F FOG

$$
MOZ066>068-077>081-088>096-101>105-211100-
...SOUTHWEST MISSOURI...

CITY           SKY/WX    TMP DP  RH WIND       PRES   REMARKS
SPRINGFIELD    CLEAR     48  38  68 SE13      29.51F
JOPLIN         CLEAR     51  36  56 W14       29.51F
BRANSON        CLEAR     48  39  71 CALM      29.56F

$$
MOZ032>034-039>042-045>050-055>058-069>072-211100-
...CENTRAL MISSOURI...

CITY           SKY/WX    TMP DP  RH WIND       PRES   REMARKS
COLUMBIA       CLEAR     50  42  74 S14       29.47F
JEFFERSON CITY CLEAR     54  41  61 S12       29.48F
ROLLA          CLEAR     52  43  71 S14       29.51F
SEDALIA        CLEAR     51  39  63 S14       29.45F
WHITEMAN AFB   CLEAR     48  42  81 SW15      29.42F
WARRENSBURG    CLEAR     45  36  70 SW10      29.44S
OSAGE BEACH    CLEAR     51  41  68 S8        29.51S

$$
MOZ051-052-059>065-211100-
...EAST CENTRAL MISSOURI...

CITY           SKY/WX    TMP DP  RH WIND       PRES   REMARKS
ST LOUIS INTL  PTCLDY    53  47  79 S10       29.54F
SPIRIT OF STL  CLEAR     54  46  74 S14       29.52F
ST CHARLES     CLEAR     42  42 100 E8        29.53F

$$
MOZ072>076-082>087-097>100-106>115-211100-
...SOUTH CENTRAL AND SOUTHEAST MISSOURI...

CITY           SKY/WX    TMP DP  RH WIND       PRES   REMARKS
CAPE GIRARDEAU PTCLDY    50  47  89 SE3       29.62F
FARMINGTON     CLEAR     48  46  93 S5        29.59F
POPLAR BLUFF   FOG       45  44  97 CALM      29.61F VSB 1
WEST PLAINS    CLOUDY    50  44  80 S6        29.58F

$$



USA.gov is the U.S. government's official web portal to all federal, state and local government web resources and services.